Wind_Speed
29 28 26 26 26 26 26 26 27 28 28 27 26 25 23 23 21 21 12 16 15 3 9 10 7 12 6 3 4 3 4 1 2 1 2 3 3 5 3 5 5 6 6 4 3 2 7 7 6 5 3 3 5 4
29 28 28 26 27 27 27 28 28 28 28 27 26 24 23 23 21 19 6 12 17 6 5 15 24 25 17 18 4 3 5 5 4 2 2 3 3 2 5 4 0 4 5 5 8 5 0 5 2 2 5 5 5 7
29 27 27 26 26 26 26 27 27 27 27 26 24 25 23 23 20 22 12 12 12 2 6 10 12 33 17 26 24 3 2 4 4 2 2 2 3 4 5 5 3 3 4 3 3 4 6 5 4 5 4 4 8 12
28 27 26 25 25 25 25 25 26 26 25 24 24 25 23 23 23 22 17 17 15 3 3 6 9 10 16 21 24 22 7 6 6 2 1 2 3 4 4 3 3 2 9 6 4 4 2 7 8 10 8 12 16 17
28 28 27 26 25 24 24 25 24 24 23 23 24 23 22 23 22 19 16 15 19 6 3 4 21 28 18 21 22 20 11 5 4 2 2 3 3 4 1 2 3 6 7 6 5 7 4 2 12 13 15 16 17 21
29 28 27 26 25 25 25 24 24 23 23 22 23 21 22 28 21 12 1 14 20 20 2 3 5 6 6 17 15 19 14 3 3 3 2 3 2 2 4 5 4 11 8 4 3 5 4 9 11 11 16 16 20 22
28 27 26 26 27 26 26 25 24 23 21 22 21 23 25 24 22 8 4 5 16 21 2 3 4 3 6 6 4 5 9 2 3 3 2 1 2 2 3 4 4 10 9 6 10 13 7 9 7 15 23 25 26 25
28 29 28 29 28 28 27 26 25 23 23 19 21 24 23 20 13 13 20 10 5 10 5 3 4 3 3 3 3 3 3 3 2 3 1 1 1 1 3 5 3 5 9 8 10 4 7 18 20 20 26 29 22 18
29 30 30 30 30 30 29 28 26 26 20 22 22 21 16 6 6 6 8 4 9 5 3 3 4 3 2 1 3 2 2 2 1 2 2 3 2 5 6 6 9 11 13 14 11 13 16 18 19 19 22 21 21 17
32 33 32 32 32 32 31 29 27 25 24 26 16 4 2 8 10 16 8 2 2 3 3 3 3 3 1 2 2 3 1 4 3 3 5 4 3 7 4 7 8 12 15 19 18 11 15 16 18 20 18 22 25 27
31 32 34 34 34 33 32 30 30 27 24 6 4 2 3 12 9 2 4 4 4 4 6 5 7 4 3 2 2 1 3 3 4 3 5 4 4 15 13 10 8 14 19 17 5 12 19 24 22 20 20 25 27 28
32 34 36 35 35 34 33 32 32 24 11 12 13 9 5 4 2 5 4 4 5 5 4 10 4 3 3 3 2 2 2 1 5 6 3 3 4 8 11 16 12 15 17 11 19 20 24 27 28 28 29 28 28 27
35 35 36 35 36 36 34 35 35 22 25 11 3 3 3 2 5 7 9 5 4 3 5 6 5 4 3 1 3 2 3 2 5 2 4 5 2 3 6 10 13 17 19 21 22 27 28 29 30 34 31 28 31 28
37 37 36 37 38 37 36 39 36 28 9 3 4 5 5 5 5 6 6 8 5 3 6 11 3 3 3 2 2 4 2 4 2 4 6 3 6 7 9 10 16 17 17 19 25 30 32 32 30 29 31 33 32 28
40 38 36 37 39 38 39 41 36 24 4 3 4 5 7 3 3 4 3 3 3 4 8 3 3 2 2 2 1 3 3 4 5 4 4 1 6 11 12 13 16 17 17 18 29 29 31 34 32 30 29 29 29 32
42 35 34 37 40 39 42 40 28 12 2 2 4 3 3 1 2 4 4 5 3 7 6 2 3 3 2 4 3 7 7 6 4 3 1 6 11 11 12 14 14 22 25 28 28 32 33 33 34 32 30 33 35 35
44 10 37 40 42 43 41 12 6 3 3 4 4 3 3 2 4 3 3 5 4 8 5 3 6 7 4 4 5 5 5 3 2 2 4 7 11 13 14 17 22 25 27 29 32 32 31 34 38 35 29 27 30 30
22 28 44 43 44 38 19 4 3 5 5 5 3 2 3 3 2 3 3 3 6 5 2 4 4 4 5 8 3 3 3 2 4 6 8 9 10 18 21 22 26 28 29 30 32 34 36 34 31 27 30 28 31 25
30 42 46 46 35 10 3 4 4 3 5 2 2 2 2 3 3 7 6 6 7 7 4 1 4 4 4 3 4 4 5 4 6 6 7 15 20 23 24 27 29 29 31 32 33 30 29 28 30 30 29 28 24 21
38 48 49 40 29 4 3 2 6 3 3 3 4 5 4 4 5 4 4 3 6 3 3 4 3 1 1 1 1 1 7 10 12 11 9 9 18 25 26 27 26 33 31 29 29 30 29 26 24 26 25 25 24 20
43 43 46 34 5 3 2 4 3 3 3 3 3 3 3 2 3 4 5 3 4 3 3 2 1 1 2 1 3 11 9 10 8 5 13 12 18 23 24 27 30 31 29 26 25 23 24 24 25 24 26 21 20 19
29 44 20 14 2 1 1 7 2 3 4 3 2 2 2 2 3 3 2 2 2 2 2 3 3 3 4 5 5 12 17 22 23 24 25 26 12 15 21 25 27 24 25 24 26 25 23 24 24 25 27 25 23 21
36 20 7 4 4 4 4 5 5 5 5 4 5 4 3 3 2 2 1 0 1 0 2 4 6 12 10 14 21 18 21 25 17 21 22 23 24 25 26 24 27 30 24 21 25 28 27 28 32 31 29 25 22 20
28 5 5 6 4 5 2 3 3 2 2 3 4 4 2 3 2 1 2 1 1 3 3 8 11 9 9 11 6 9 15 22 23 22 26 28 22 21 24 25 23 24 29 31 29 30 31 30 31 29 27 24 21 19
7 6 4 4 2 4 5 5 4 2 3 3 3 3 3 2 3 2 4 4 5 5 6 6 6 7 8 8 7 14 20 23 22 12 22 27 30 27 23 23 23 28 37 37 29 31 30 31 30 28 25 22 20 17
4 4 7 9 4 4 5 4 6 6 3 4 2 1 1 3 4 5 5 7 6 8 10 10 10 9 6 8 8 11 19 23 27 22 23 27 30 32 25 21 21 18 24 36 42 36 32 31 29 26 22 18 17 17
4 5 3 2 1 3 2 2 2 2 4 4 3 1 4 5 5 3 0 3 5 11 18 19 18 13 13 18 19 21 24 23 21 22 27 24 24 30 39 35 29 31 38 40 39 38 36 32 28 24 21 18 16 13
2 4 7 4 2 1 3 1 3 5 3 2 4 5 6 5 3 2 2 5 16 22 21 19 17 19 20 24 34 35 31 32 35 34 32 28 25 27 32 34 38 41 40 36 35 33 31 29 26 23 19 17 15 13
1 1 3 3 2 2 1 2 2 0 1 2 2 0 2 1 1 1 4 15 23 24 19 19 19 25 24 25 27 30 35 37 36 23 20 12 15 17 31 39 42 39 37 34 30 28 27 25 22 19 17 15 14 12
3 2 4 2 3 1 1 2 1 1 2 1 2 2 2 1 4 8 14 17 17 15 18 21 23 25 23 26 25 23 23 25 27 30 17 15 22 37 41 44 42 40 37 35 34 31 27 24 22 20 18 16 14 12
2 2 3 2 3 2 3 3 2 1 2 3 3 2 2 2 4 6 8 13 17 22 23 19 17 19 21 23 25 23 15 21 25 26 34 37 43 43 46 45 42 40 39 37 35 33 30 26 23 21 18 15 12 9
2 2 4 3 2 0 1 2 2 2 2 1 2 2 4 3 2 1 11 17 15 15 18 22 22 21 22 22 23 21 24 31 34 35 44 46 46 47 46 44 42 40 39 37 34 31 28 26 23 19 16 13 11 9
2 2 2 3 2 2 2 2 3 1 2 2 2 1 1 2 4 3 11 19 19 20 20 19 21 25 26 29 31 28 33 36 35 42 44 44 46 47 45 43 42 40 37 35 32 29 26 23 20 17 14 12 10 10
Wind_Direction
225 227 227 229 228 231 231 230 228 225 224 227 232 237 234 232 226 211 222 217 202 233 267 263 270 284 330 152 152 138 82 287 60 211 185 180 158 195 144 153 181 158 149 174 117 173 260 161 106 199 146 145 139 120
225 225 226 227 229 232 230 227 224 221 223 226 228 232 227 228 217 202 196 216 220 222 273 296 286 273 264 260 295 211 176 148 194 128 218 126 133 165 155 190 57 192 184 177 194 208 227 190 113 130 157 147 153 130
226 222 224 227 230 229 230 227 222 219 221 223 227 225 224 218 211 203 184 203 204 279 289 261 262 271 268 257 242 210 260 138 162 189 199 156 151 152 164 212 151 226 175 174 163 191 213 199 174 159 167 133 133 137
219 219 220 223 224 224 223 222 222 220 220 221 224 221 215 219 209 193 192 202 204 184 249 273 263 238 254 253 236 224 213 162 104 86 203 222 148 207 186 129 179 170 152 169 257 256 271 230 200 159 120 118 122 132
215 217 218 219 219 217 218 220 219 218 220 222 221 212 211 208 184 186 210 223 216 207 286 303 309 283 269 243 220 209 160 148 168 169 227 240 125 139 67 109 197 194 166 177 212 195 183 163 168 150 141 144 141 131
213 214 215 214 214 213 213 215 214 215 217 219 206 201 204 177 171 164 243 242 224 220 280 276 288 249 237 222 213 197 182 126 131 146 222 240 283 159 156 193 236 197 198 179 177 127 82 106 124 145 136 138 135 132
209 210 209 210 210 209 210 211 209 210 212 204 208 203 186 178 172 182 176 115 200 196 240 258 261 251 236 206 150 177 164 149 139 172 226 265 194 181 143 188 219 203 197 153 134 119 93 162 153 133 128 123 118 118
207 208 205 207 206 208 207 206 204 203 195 197 196 185 172 171 183 239 231 249 219 182 228 239 263 282 221 183 138 155 130 132 133 153 153 214 171 168 235 213 200 152 150 147 159 44 119 122 123 125 128 129 122 124
204 204 203 202 204 203 200 196 195 189 187 182 169 162 157 142 163 217 199 192 172 233 209 227 216 230 175 218 167 117 121 107 163 141 208 138 196 221 214 175 190 184 174 157 113 114 128 132 137 139 138 135 128 133
201 202 198 198 198 195 193 192 189 185 182 162 151 119 133 196 156 134 146 138 143 229 242 243 210 232 128 318 133 94 86 140 160 207 122 204 247 235 207 212 202 156 140 135 124 131 138 142 147 147 147 142 135 138
195 196 193 193 191 189 187 185 179 171 151 138 133 174 141 149 150 133 169 170 209 220 211 201 193 165 136 229 181 160 134 184 154 179 184 206 240 232 208 210 180 163 166 175 115 153 167 152 148 142 137 135 135 137
187 191 190 188 185 184 182 179 173 165 143 150 136 126 144 170 152 147 189 209 218 236 201 171 181 175 104 208 160 150 120 169 175 135 173 236 242 216 194 197 165 159 158 147 135 136 139 141 140 135 134 134 136 135
184 186 184 184 181 181 178 173 169 158 138 123 97 120 133 187 196 199 186 209 223 211 188 155 176 138 175 196 96 141 124 151 128 137 218 236 223 166 139 127 129 137 128 118 121 126 129 129 132 133 131 133 133 134
181 181 181 181 179 178 174 170 167 157 142 117 136 146 189 183 225 216 191 206 211 193 171 162 116 134 185 103 130 153 113 140 170 216 226 243 195 157 141 136 134 134 130 126 128 131 130 129 127 128 130 136 134 134
178 178 177 178 179 178 173 172 168 167 136 144 148 210 214 204 221 267 275 268 208 172 152 138 97 130 129 112 112 106 113 217 213 231 223 319 121 137 138 136 132 130 129 128 134 132 129 129 126 125 132 134 134 135
175 172 174 177 175 171 167 166 167 177 69 170 223 241 247 202 52 349 292 245 224 172 149 136 138 135 175 137 154 217 170 210 229 219 97 132 128 128 129 128 127 129 131 131 133 131 128 129 129 126 130 135 139 141
171 154 175 174 171 168 164 142 137 155 195 193 237 201 281 295 243 268 301 297 263 170 190 158 166 194 121 162 210 187 208 219 182 119 112 135 134 129 124 122 124 126 128 130 128 126 124 126 127 125 123 133 135 141
169 163 169 167 162 157 161 161 140 170 200 232 244 207 201 220 257 266 234 284 284 181 168 217 135 172 192 204 203 231 165 117 102 122 125 126 124 122 127 125 125 129 128 127 125 127 128 129 128 129 132 136 134 136
161 159 163 164 158 140 129 164 155 182 215 215 215 243 208 238 239 245 249 260 301 279 167 211 218 197 208 210 186 186 153 147 137 119 114 119 125 124 124 123 125 125 125 129 131 131 133 135 136 138 138 141 139 144
158 159 161 159 153 123 120 114 148 170 204 216 223 208 212 218 223 226 234 307 236 215 182 215 236 204 211 317 311 152 133 132 132 125 118 118 125 125 127 128 127 125 124 123 121 124 123 124 132 139 144 148 145 149
147 156 157 158 168 27 110 147 177 199 187 224 194 186 235 225 224 232 254 146 204 188 207 216 235 306 296 265 108 145 135 140 143 138 144 136 135 127 125 128 131 130 128 131 130 128 131 135 141 146 147 147 149 148
145 147 148 159 176 189 193 193 210 170 176 217 176 180 247 219 193 192 178 170 219 151 170 169 152 143 99 98 111 104 116 109 111 114 122 128 132 134 135 141 135 128 131 137 136 134 133 138 144 148 150 147 148 145
136 137 116 134 158 171 246 175 190 191 187 195 148 177 217 235 179 170 154 139 130 143 147 112 108 98 98 101 91 103 120 124 126 130 129 127 128 133 134 136 137 131 127 126 134 133 133 148 153 150 149 148 145 145
135 113 143 181 169 203 211 209 208 200 190 177 179 167 198 207 170 84 184 165 127 130 127 132 124 118 99 87 113 129 128 124 122 124 133 131 128 129 131 130 133 132 132 135 135 136 141 150 154 150 152 149 151 152
110 190 160 186 169 196 200 174 168 176 196 156 161 200 205 204 119 188 200 169 163 152 145 141 132 119 126 135 137 135 140 143 139 131 140 136 126 120 118 119 125 132 143 135 137 141 146 153 156 153 153 154 157 163
128 174 180 178 186 205 189 150 174 193 180 160 169 284 131 190 170 213 194 168 169 166 167 170 152 138 151 154 150 146 145 146 139 130 139 148 146 140 135 132 130 134 150 152 151 150 152 156 156 153 153 159 167 168
145 193 188 213 184 141 128 116 146 169 191 144 119 187 222 167 205 212 275 174 169 177 173 165 159 156 154 146 141 133 136 143 142 136 139 143 148 151 150 150 152 155 164 160 160 158 155 157 157 156 159 166 174 175
150 176 162 163 111 35 135 168 159 192 200 186 129 226 170 172 172 168 187 155 135 139 139 143 149 143 155 156 139 136 130 135 132 126 125 130 141 148 152 154 155 157 162 163 160 157 156 156 156 160 165 168 168 169
130 149 104 72 72 62 105 203 227 224 303 216 168 87 92 42 310 48 110 134 134 131 128 125 122 128 127 127 128 137 140 144 143 146 136 136 131 133 153 154 154 159 161 158 155 155 154 153 155 158 160 161 161 162
153 131 101 91 91 151 232 196 230 232 249 95 110 116 81 51 33 141 139 140 138 137 139 138 141 145 145 141 136 140 154 161 163 154 148 151 150 154 155 155 158 159 157 155 155 155 156 156 156 158 160 160 162 164
144 112 95 105 126 184 209 189 191 96 41 41 29 83 134 157 75 67 130 137 135 138 133 136 137 149 149 152 150 146 151 166 164 157 154 155 153 155 158 159 159 159 159 159 160 161 161 164 167 166 166 167 169 173
54 118 127 104 129 309 52 59 58 63 62 54 47 30 19 32 72 32 156 151 149 148 152 148 148 156 160 154 153 157 158 160 163 164 158 156 156 160 161 161 161 162 163 165 167 167 170 172 172 175 175 178 184 194
83 81 74 92 63 69 35 87 46 72 54 72 68 104 146 183 195 195 175 179 169 158 156 157 154 153 154 156 157 159 162 162 163 163 163 161 161 162 164 164 165 167 168 169 171 172 175 179 180 183 188 194 204 216
Height
756 760 764 768 773 777 781 785 789 793 798 802 807 811 814 818 822 826 828 831 834 832 827 824 824 822 807 802 808 812 819 825 833 834 823 827 824 827 827 828 831 832 843 851 862 857 844 823 829 828 826 833 834 839
748 753 757 762 766 770 774 778 783 787 792 797 802 806 809 813 817 822 825 827 830 831 825 821 817 814 815 810 809 807 804 810 812 823 828 829 827 834 823 824 833 825 822 828 831 824 819 822 820 824 826 827 834 839
741 746 751 755 760 764 768 772 777 782 787 792 797 800 804 809 813 817 821 824 827 827 823 819 805 801 805 804 806 809 804 801 810 812 814 811 807 817 818 817 822 825 826 822 825 814 818 820 822 824 826 828 834 840
734 739 744 749 754 758 763 767 772 777 782 787 791 795 800 805 810 813 817 820 823 824 821 805 799 799 796 796 798 801 795 798 803 808 811 809 800 810 809 805 807 813 819 820 819 815 819 818 818 822 829 833 838 845
727 733 738 743 748 754 758 763 768 773 778 783 787 791 797 802 805 810 814 816 819 823 813 806 798 788 788 791 791 793 794 796 801 808 811 801 802 804 817 812 807 809 806 808 804 798 799 805 813 822 827 833 839 843
721 726 732 738 744 749 754 759 764 770 774 778 783 788 793 796 803 809 814 811 813 817 820 808 793 785 783 784 786 787 791 794 796 799 802 802 799 796 799 799 791 792 794 792 792 801 809 814 819 823 828 836 842 847
715 721 727 733 739 745 750 755 761 766 771 775 780 785 789 794 799 802 804 806 807 815 817 808 790 778 776 777 779 783 786 791 793 801 802 798 797 797 796 791 780 786 789 795 799 802 814 816 819 827 831 839 846 853
709 715 721 728 734 740 746 752 757 763 768 773 778 782 788 794 800 801 799 803 807 810 811 801 786 780 773 772 775 777 783 787 792 795 801 797 800 798 787 780 778 782 789 796 798 800 800 812 822 831 836 841 849 857
703 709 716 723 729 735 742 748 754 760 765 771 776 781 786 790 795 794 798 801 804 804 800 791 780 771 771 769 769 776 773 787 795 793 793 793 789 780 769 772 777 781 779 790 802 806 811 813 823 831 837 845 848 859
697 704 711 718 725 731 738 744 751 757 763 769 775 779 785 785 788 792 797 799 801 797 789 779 776 771 771 770 768 771 778 784 785 787 795 794 772 769 766 765 765 775 781 787 800 812 816 820 823 830 837 844 849 857
692 699 707 713 721 728 735 742 749 754 761 766 771 776 777 781 785 788 791 793 790 781 775 766 764 765 769 775 768 766 773 778 774 778 779 778 766 750 756 761 764 769 775 777 778 788 796 799 812 826 838 846 853 860
689 696 703 711 718 726 733 740 746 752 755 761 764 772 776 778 781 784 786 781 774 759 752 748 755 757 761 766 762 766 768 774 761 780 777 765 752 743 745 745 755 764 772 779 783 791 801 810 817 827 837 847 855 863
685 693 701 708 716 724 731 739 745 752 755 760 765 769 770 775 773 773 772 766 759 748 741 741 754 752 760 759 761 763 760 763 775 773 762 749 740 744 745 750 758 765 773 780 788 796 806 814 823 828 840 851 858 865
683 691 699 707 715 722 730 738 745 751 754 760 766 776 767 761 755 750 741 738 737 738 737 734 745 751 756 756 760 754 768 770 774 774 761 739 734 742 746 751 756 767 776 782 791 800 808 816 827 836 843 851 858 866
681 690 698 707 714 722 730 737 745 750 751 759 760 761 750 743 747 747 743 742 736 735 735 742 744 747 755 757 760 764 764 761 754 739 734 734 735 742 749 753 760 769 777 786 796 803 811 820 829 840 849 856 861 867
680 691 697 705 714 723 731 740 747 750 752 754 753 748 744 744 743 746 742 738 733 730 735 739 741 743 746 749 756 753 749 746 733 733 736 738 740 749 754 758 765 772 779 789 799 806 813 822 831 842 852 858 865 870
679 682 693 704 715 725 732 737 744 749 751 751 749 747 746 745 745 742 742 737 732 728 729 736 734 728 744 738 743 739 734 726 730 738 741 745 748 751 756 763 770 778 788 796 802 811 820 828 836 845 854 865 869 876
678 683 693 705 716 727 733 736 741 744 745 745 744 743 741 741 740 739 737 735 732 725 731 722 729 731 725 717 724 728 732 739 740 740 744 752 756 758 763 768 777 785 793 801 807 816 824 832 841 851 859 866 872 879
674 684 694 705 714 720 728 734 737 739 740 740 738 737 736 734 732 730 729 728 730 729 725 726 719 715 713 716 713 718 725 731 741 749 756 757 759 762 770 776 783 791 797 806 814 822 830 836 842 851 859 866 872 879
678 688 698 707 716 721 727 730 733 736 733 732 731 728 727 726 723 722 721 723 730 723 720 719 712 715 716 718 716 716 720 728 735 747 757 763 767 770 774 780 787 794 805 815 821 826 834 843 851 856 861 867 872 878
684 694 705 711 717 718 720 725 728 727 727 727 722 722 720 719 717 716 714 719 720 714 715 719 720 721 722 721 718 723 722 725 730 733 744 757 767 773 780 789 794 798 805 817 824 832 838 844 851 858 864 869 874 878
681 694 705 714 717 719 719 719 719 718 722 719 717 717 715 714 712 712 714 713 713 715 718 720 722 722 721 724 726 721 725 731 738 746 756 761 768 776 784 792 796 802 811 820 825 831 840 847 854 860 864 870 875 878
683 696 704 710 714 717 714 712 711 711 710 709 711 713 714 713 710 712 711 711 714 715 716 717 723 721 723 726 723 732 736 738 745 752 758 765 774 781 787 795 799 804 814 823 829 834 841 850 856 861 866 871 874 879
689 695 703 707 706 711 709 704 704 701 701 701 702 703 708 708 708 708 707 712 715 716 717 720 719 726 728 728 737 741 742 743 749 757 764 768 776 787 792 797 805 810 812 821 830 837 845 853 859 863 867 871 875 879
688 700 699 701 702 704 703 700 698 700 703 703 704 704 701 704 699 706 702 710 713 715 718 719 722 722 730 740 745 746 747 750 752 757 768 772 776 788 797 803 809 811 816 822 834 840 848 855 859 863 866 870 875 880
688 693 692 694 697 694 698 699 699 700 700 700 701 700 700 700 694 687 697 699 704 708 711 713 715 724 733 734 739 741 745 750 754 759 769 774 777 781 792 801 810 820 823 826 831 840 849 854 859 862 866 872 877 880
686 691 686 687 687 688 692 694 695 695 693 690 695 703 697 674 678 695 697 697 700 702 707 711 715 719 724 731 739 743 748 754 758 762 770 778 784 786 785 792 804 813 822 829 836 841 846 853 858 862 868 873 877 878
680 684 680 685 689 687 689 690 688 687 686 689 694 690 673 675 683 698 697 697 698 704 710 715 719 723 729 733 731 738 748 755 762 768 776 784 790 792 796 801 807 816 824 832 837 842 847 852 857 864 869 873 874 876
683 681 683 696 695 696 695 694 691 691 693 688 682 688 693 692 694 693 696 698 700 705 711 717 724 728 732 735 736 742 747 752 757 768 775 785 792 799 802 805 813 821 829 834 839 845 849 855 860 865 869 872 873 874
682 684 692 700 697 696 695 697 694 695 694 689 688 691 695 696 696 696 697 698 701 706 711 716 721 725 728 731 739 748 754 757 761 760 766 775 784 793 801 807 815 822 827 833 839 846 852 858 862 865 868 870 872 873
681 684 690 695 696 695 696 694 692 690 690 691 693 694 697 698 698 699 700 702 704 708 710 716 722 727 730 734 736 743 752 759 763 768 771 778 786 793 801 809 815 821 827 833 840 846 851 856 861 864 866 868 870 871
683 687 688 693 691 689 687 688 691 692 694 694 695 695 696 696 700 703 703 704 707 709 712 715 720 727 731 735 740 745 749 755 762 767 772 778 787 795 802 809 815 822 829 835 841 846 851 855 859 861 864 865 867 869
686 689 691 690 694 692 691 690 694 695 697 699 702 705 711 708 704 705 705 706 706 707 711 715 720 725 731 736 741 746 753 759 765 770 775 780 786 795 803 810 817 823 830 836 841 846 850 854 857 859 861 863 865 867